STARLINK-1215 (45225 NORAD) Tracking and Keplerian Element Data

This shows tracking and keplerian element data for the satellite.

Feedback or suggestion? Click here.




ElementValue
Catalog45225
NameSTARLINK-1215
Epoch Orbit175
Epoch Day188.91667824
Epoch Year2020
RAAN307.157
Inclination52.9993
Eccentricity0.0001071
Argument of Perigee105.3107
Mean Anonmoly154.2493
Mean Motion15.05610626
Decay Rate-0.00065003
L11 45225U 20012AZ 20188.91667824 -.00065003 00000-0 -44795-2 0 9992
L22 45225 52.9993 307.1570 0001071 105.3107 154.2493 15.05610626 1759

Live tracking and technical data element details for STARLINK-1215 (NORAD 45225). STARLINK-1215 can be tracked NOW for your location showing map with azimuth and elevation plus other details from your city location.

Track the satellite on the map from your city or location and see movement details for azimuth, elevation, latitude, longitude, range, height, and movement on the map or in text.







IsCatalogInMostPopularTable: catalog: 45225, numindb: 24
Update: records affected: 1



GetName: 45225 STARLINK-1215

Hit Count: updated at: Wed, 08 Jul 2020 03:55:10 GMT